Regional Weather Roundup
Issued by NWS

Home | Current Version | Previous Version | Graphics & Text | Print | Product List | Glossary On
Versions: 1 2 3 4 5 6 7 8 9 10 11 12 13 14 15 16 17 18 19 20 21 22 23 24 25 26 27 28 29 30 31 32 33 34 35 36 37 38 39 40 41 42 43 44 45 46 47 48 49 50
360
ASUS44 KJAN 261503
RWRMS

MISSISSIPPI HOURLY WEATHER ROUNDUP
NATIONAL WEATHER SERVICE JACKSON MS
900 AM CST WED NOV 26 2014

NOTE: "FAIR: INDICATES FEW OR NO CLOUDS BELOW 12,000 FEET WITH NO
SIGNIFICANT WEATHER AND/OR OBSTRUCTIONS TO VISIBILITY.

MSZ001>002-007>008-010>013-018>021-025>028-034>036-261600-
NORTHWEST MISSISSIPPI

CITY           SKY/WX    TMP DP  RH WIND       PRES   REMARKS
CLARKSDALE     FAIR      39  32  75 SE10      30.15S WCI  32
CLEVELAND      FAIR      43  36  75 S13       30.14S
GREENWOOD      SUNNY     44  32  62 S9        30.18S
GREENVILLE     SUNNY     45  36  70 S13       30.14S
GRENADA        FAIR      37  32  81 CALM      30.19S
OXFORD         FAIR      37  27  65 S12       30.18S WCI  30
TUNICA         MOSUNNY   37  32  81 SE13      30.14F WCI  29
$$

MSZ003>006-009-014>017-022>024-029>033-037>039-261600-
NORTHEAST MISSISSIPPI

CITY           SKY/WX    TMP DP  RH WIND       PRES   REMARKS
COLUMBUS AFB   SUNNY     38  32  77 SE1       30.21R
CORINTH        FAIR      37  30  75 SE3       30.17R
GOLDN TRIANGLE SUNNY     39  30  70 S5        30.20R
STARKVILLE     FAIR      37  32  81 CALM      30.21R
TUPELO         SUNNY     39  30  70 S3        30.19S
$$

MSZ040-058-261600-
CENTRAL MISSISSIPPI

CITY           SKY/WX    TMP DP  RH WIND       PRES   REMARKS
JACKSON INTL   SUNNY     45  32  60 S10       30.22S
JACKSON HAWKNS SUNNY     46  31  55 S10       30.22R
MERIDIAN KEY   SUNNY     39  31  72 S5        30.24S
MERIDIAN NAS   MOSUNNY   43  30  60 SW3       30.24R
RAYMOND        FAIR      45  39  81 S8        30.21F
VICKSBURG      SUNNY     46  36  68 S7        30.20S
$$

MSZ059>079-261600-
SOUTH MISSISSIPPI

CITY           SKY/WX    TMP DP  RH WIND       PRES   REMARKS
BROOKHAVEN     FAIR      45  34  65 S6        30.25R
HATTIESBURG    SUNNY     45  33  63 SE3       30.28R
MCCOMB         SUNNY     46  35  65 S5        30.25R
NATCHEZ        SUNNY     50  37  62 SW8       30.23R
PINE BELT      SUNNY     43  30  61 S3        30.26S
$$

MSZ080>082-261600-
COASTAL MISSISSIPPI

CITY           SKY/WX    TMP DP  RH WIND       PRES   REMARKS
BAY ST LOUIS   SUNNY     45  34  65 CALM      30.30R
BILOXI         SUNNY     47  28  47 VRB1      30.28R
PASCAGOULA     SUNNY     48  29  47 N3        30.28R
GULFPORT       SUNNY     47  30  51 CALM      30.28R
$$



USA.gov is the U.S. government's official web portal to all federal, state and local government web resources and services.